Tracking 29892 objects as of 21-Nov-2024
HD Live streaming from Space Station
objects crossing your sky now

COSMOS 1818 COOLANT

Track COSMOS 1818 COOLANT now!
10-day predictions


NORAD ID: 36935
Int'l Code: 1987-011P
Perigee: 754.5 km
Apogee: 785.3 km
Inclination: 65.0 °
Period: 100.1 minutes
Semi major axis: 7140 km
RCS: 0.0035 m2 (small)
Launch date: February 1, 1987
Source: Commonwealth of Independent States (former USSR) (CIS)
Launch site: TYURATAM MISSILE AND SPACE COMPLEX (TTMTR)

Note: This is SATELLITE DEBRIS
Your satellite tracking list
Your tracking list is empty




NASA's NSSDC Master Catalog

Two Line Element Set (TLE):
1 36935U 87011P   24323.82260674  .00001863  00000-0  63718-3 0  9998
2 36935  65.0110 358.4619 0021555 258.5532 101.3135 14.38714789258837
Source of the keplerian elements: AFSPC